Tracking 29892 objects as of 21-Nov-2024
HD Live streaming from Space Station
objects crossing your sky now

STARLINK-30195

Track STARLINK-30195 now!
10-day predictions
STARLINK-30195 is classified as:


NORAD ID: 57406
Int'l Code: 2023-102C
Perigee: 565.6 km
Apogee: 566.9 km
Inclination: 43.0 °
Period: 95.8 minutes
Semi major axis: 6937 km
RCS: Unknown
Launch date: July 20, 2023
Source: United States (US)
Launch site: AIR FORCE WESTERN TEST RANGE (AFWTR)
Your satellite tracking list
Your tracking list is empty




NASA's NSSDC Master Catalog

Two Line Element Set (TLE):
1 57406U 23102C   24325.29784500 -.00000546  00000-0 -25361-4 0  9999
2 57406  43.0039 306.7475 0000915 281.1654  78.9086 15.02527387 74871
Source of the keplerian elements: AFSPC